Location: Acequia del Cap
(41.7000°N, 0.6167°E)
Time: 01:00:52
(UTC+00:00)

SJ 16-02 - Pass Details

Date: 07 August 2020
Orbit: 607 x 616 km, 75.0° (Epoch: 22 September)

Event Time Altitude Azimuth Distance (km) Brightness Sun altitude
Exits shadow 01:25:16 22° 86° (E) 1,348 3.3 -29.0°
Drops below altitude 10° 01:28:08 10° 47° (NE) 1,978 4.7 -28.8°
Sets 01:30:44 0° 32° (NNE) 2,886 6.0 -28.6°
